User: anonymous   Login
Location: Brookview Estates
(36.0476°N, 86.6931°W)
Time: 11:03:42
(UTC+00:00)
Language:

ATLAS 3B R/B - Orbit

View from above orbital plane
View from above orbital plane
View from above satellite
View from above satellite

Ground track
Ground track

The orbit data is extracted from the following two-line orbital elements,

1 28538U 05004B   20167.12300232 0.00000000  00000-0  00000-0 0    07
2 28538  63.8303  59.3293 0098479  50.2219 309.7780 13.43132421    06
Epoch (UTC): 15 June 2020 02:57:07
Eccentricity: 0.0098479
inclination: 63.8303°
perigee height: 1024 km
apogee height: 1171 km
right ascension of ascending node: 59.3293°
argument of perigee: 50.2219°
revolutions per day: 13.43132421
mean anomaly at epoch: 309.7780°
orbit number at epoch: 0

The dashed part of the orbit path shows where the satellite is in the earth's shadow,  

DLR